Regional Weather Roundup
Issued by NWS Goodland, KS

Home | Current Version | Previous Version | Text Only | Print | Product List | Glossary On
Versions: 1 2 3 4 5 6 7 8 9 10 11 12 13 14 15 16 17 18 19 20 21 22 23 24 25 26 27 28 29 30 31 32 33 34 35 36 37 38 39 40 41 42 43 44 45 46 47 48 49 50
000
ASUS43 KGLD 261359
RWRGLD

GOODLAND FORECAST AREA HOURLY WEATHER ROUNDUP
NATIONAL WEATHER SERVICE GOODLAND KS
800 AM MDT SUN APR 26 2015

...OFFICIAL OBSERVATIONS...

CITY           SKY/WX    TMP DP  RH WIND       PRES   REMARKS
GOODLAND KS    CLOUDY    43  43 100 E18       29.89S FOG
HILL CITY KS   CLOUDY    47  43  86 E17       29.91R
IMPERIAL NEB   CLOUDY    43  40  89 E16       29.93R
MCCOOK NEB     CLOUDY    45  43  93 E18       29.92R FOG
AKRON CO       LGT RAIN  41  41 100 SE20      29.86R VSB 1/4
BURLINGTON CO  FOG       43  42  97 E16       29.88R VSB 1/4
LIMON CO       CLOUDY    43  42  97 E18       29.84R
$$

...UNOFFICIAL OBSERVATIONS...

CITY           SKY/WX    TMP DP  RH WIND       PRES   REMARKS
GOVE KS          N/A     46  32  58 MISG        N/A
LENORA KS        N/A     44  32  63 MISG        N/A
SHARON SPRINGS   N/A     44  43  97 N12         N/A
KIT CARSON CO    N/A     43  41  92 MISG        N/A
YUMA CO          N/A     53  53 100 E18         N/A
$$



USA.gov is the U.S. government's official web portal to all federal, state and local government web resources and services.